User: anonymous   Login
Location: Unspecified
(0.0000°N, 0.0000°E)
Time: 06:44:39
(UTC+00:00)
Language:

SO-67 - Orbit

View from above orbital plane
View from above orbital plane
View from above satellite
View from above satellite

Ground track
Ground track

The orbit data is extracted from the following two-line orbital elements,

1 35870U 09049F   16209.88737700  .00005206  00000-0  96941-4 0  9999
2 35870  97.1178 224.2024 0002109 110.6546 301.1493 15.49283358382944
Epoch (UTC): 27 July 2016 21:17:49
Eccentricity: 0.0002109
inclination: 97.1178°
perigee height: 417 km
apogee height: 420 km
right ascension of ascending node: 224.2024°
argument of perigee: 110.6546°
revolutions per day: 15.49283358
mean anomaly at epoch: 301.1493°
orbit number at epoch: 38294

The dashed part of the orbit path shows where the satellite is in the earth's shadow,  

DLR